Location: Pard�
(46.6517°N, 8.8505°E)
Time: 07:08:26
(UTC+00:00)

Daily predictions for brighter satellites

Satellite Brightness Start Highest point End
(mag) Time Altitude Azimuth Time Altitude Azimuth Time Altitude Azimuth
SL-08 RB Rocket 4.0 19:08:54 10° S 19:13:30 74° WSW 19:18:11 10° NNW
MetOp-A 4.2 19:09:57 10° SSE 19:15:18 77° ENE 19:20:40 10° NNW
Cosmos 1697 Rocket 3.5 19:10:23 10° NNW 19:15:34 36° NE 19:20:43 10° ESE
Cosmos 1833 Rocket 3.5 19:11:39 10° SSE 19:16:20 28° ESE 19:21:04 10° NE
Cosmos 2228 Rocket 3.2 19:13:06 10° N 19:17:32 62° E 19:21:52 10° SSE
Cosmos 1515 Rocket 4.1 19:15:44 10° NNW 19:20:11 66° W 19:24:36 10° S
Cosmos 389 Rocket 3.1 19:17:16 10° N 19:20:29 36° ENE 19:23:41 10° SE
SPOT 3 Rocket 3.7 19:16:23 10° SSE 19:21:31 61° ENE 19:26:39 10° N
Cosmos 1812 3.5 19:18:50 10° N 19:22:24 35° ENE 19:25:56 10° SE
Cosmos 1727 Rocket 4.1 19:16:13 10° N 19:22:36 74° E 19:28:57 10° SSE
Cosmos 2251 Rocket 3.5 19:17:57 10° SSW 19:23:12 83° ESE 19:28:31 10° NNE
Cosmos 1656 3.7 19:21:52 10° NNW 19:27:21 72° ENE 19:32:52 10° SSE
Cosmos 1633 3.7 19:27:29 10° SSW 19:30:53 46° WNW 19:34:20 10° N
IRIDIUM 104 4.5 19:26:29 10° SSE 19:31:33 55° E 19:36:39 10° NNE
Cosmos 1707 Rocket 4.4 19:27:54 10° N 19:31:50 32° ENE 19:35:44 10° SE
Cosmos 220 Rocket 4.3 19:27:49 10° NNW 19:31:56 50° ENE 19:36:03 10° SE
Resurs 01 Rocket 1.9 19:28:21 10° SSE 19:32:38 52° ENE 19:36:56 10° N
Cosmos 972 Rocket 3.9 19:28:48 10° NNW 19:33:51 85° WSW 19:38:44 10° SSE
Cosmos 1441 Rocket 3.5 19:34:28 10° SSE 19:38:05 44° E 19:41:42 10° NNE
IRIDIUM 114 4.3 19:35:32 10° S 19:40:41 66° E 19:45:52 10° N
Cosmos 614 Rocket 4.1 19:36:43 10° S 19:41:42 53° ESE 19:46:46 10° NNE
IGS 5A 4.5 19:41:07 12° SE 19:44:21 30° ENE 19:48:00 10° N
Cosmos 1900 4.4 19:40:06 10° SW 19:45:02 88° WNW 19:50:07 10° NE
USA 267 3.3 19:41:48 10° ENE 19:48:17 63° SE 19:54:46 10° SW
IRIDIUM 103 4.3 19:44:36 10° S 19:49:49 80° E 19:55:03 10° N
GP-B 4.2 19:46:37 10° NNE 19:50:25 27° E 19:53:14 15° SE
Cosmos 1821 Rocket 4.0 19:45:56 10° S 19:51:59 67° E 19:58:10 10° NNE
COSMOS 2406 3.2 19:48:19 10° SSW 19:54:03 78° ESE 19:59:50 10° NNE
Shenzhou-11 Module 2.4 19:52:34 10° WSW 19:54:42 29° S 19:55:30 22° SSE
CZ-2C R/B 3.8 19:51:48 10° NNE 19:56:29 85° WNW 20:01:01 10° SSW
SL-16 R/B 4.1 19:54:08 10° N 19:57:52 17° NE 20:01:34 10° E
Intercosmos 25 3.2 19:53:46 10° N 19:58:23 83° ENE 20:01:25 12° S
ERS-1 Rocket 4.1 19:56:08 14° ESE 19:59:28 28° ENE 20:03:44 10° N
Lacrosse 5 3.4 19:56:23 10° NW 20:00:50 29° NNE 20:05:16 10° ENE
Cosmos 1862 3.7 19:59:21 10° SSW 20:03:21 68° W 20:07:25 10° N
Cosmos 2369 3.8 19:57:49 10° NNW 20:03:35 71° ENE 20:08:05 17° SE
Sich 1 3.0 19:59:50 10° S 20:04:15 78° E 20:08:43 10° NNE
Cosmos 1818 3.6 20:02:46 10° NW 20:08:15 83° SW 20:12:24 18° SSE
BREEZE-M DEB (TANK) 2.7 20:05:21 10° W 20:08:23 46° N 20:09:54 14° ENE
Cosmos 2082 Rocket 2.5 20:03:53 10° S 20:09:14 44° ESE 20:14:37 10° NE
Cosmos 2278 4.0 20:07:12 10° NNW 20:12:51 58° ENE 20:16:44 20° SE
Cosmos 2123 Rocket 4.1 20:06:59 10° N 20:13:09 63° ENE 20:18:06 17° SSE
Meteor 2-20 4.4 20:08:46 10° N 20:14:57 74° E 20:20:07 15° SSE
Spot 2 Rocket 3.6 20:11:25 17° SSE 20:15:18 67° ENE 20:20:23 10° N
Cosmos 2322 Rocket 4.0 20:16:19 10° N 20:20:29 20° NE 20:24:25 11° E
Meteor 1-4 Rocket 2.4 20:17:22 10° N 20:20:50 64° ENE 20:22:26 28° SSE
Cosmos 2239 Rocket 4.5 20:15:11 10° S 20:21:20 87° W 20:27:31 10° N
Cosmos 1184 Rocket 3.4 20:21:01 31° SE 20:21:51 36° E 20:24:56 10° NNE
Cosmos 1190 Rocket 3.9 20:16:47 10° S 20:22:01 71° ESE 20:27:19 10° NNE
CARTOSAT-1 4.3 20:20:05 23° ESE 20:22:10 38° ENE 20:26:12 10° N
Terra 3.0 20:21:08 20° ESE 20:23:23 28° ENE 20:27:27 10° N
USA 234 3.3 20:18:45 18° ESE 20:23:51 79° NNE 20:30:24 10° NW
CZ-2C R/B 4.3 20:19:21 10° N 20:24:00 35° WNW 20:28:39 10° SW
Cosmos 407 Rocket 3.5 20:19:37 10° SSW 20:24:58 90° ESE 20:30:17 10° NNE
Cosmos 1605 Rocket 4.3 20:21:08 18° SSE 20:25:29 47° E 20:31:17 10° NNE
Cosmos 1666 Rocket 3.4 20:21:33 10° S 20:25:51 86° E 20:30:12 10° N
Cosmos 1238 Rocket 3.3 20:28:02 26° E 20:28:02 26° E 20:30:22 10° NNE
MetOp-B 4.3 20:25:44 14° S 20:30:18 72° WSW 20:35:41 10° NNW
Okean 1 4.5 20:26:48 10° NNE 20:30:21 29° ENE 20:31:27 25° ESE
Meteor 1-27 Rocket 4.1 20:25:42 10° NNW 20:31:35 69° W 20:36:53 13° S
Cosmos 2360 Rocket 4.3 20:31:02 10° N 20:34:25 16° NE 20:37:47 10° ENE
Cosmos 1437 Rocket 4.2 20:31:49 10° NNE 20:34:47 21° ENE 20:35:27 20° E
BREEZE-M DEB (TANK) 4.1 20:35:32 10° W 20:37:34 13° WSW 20:39:00 10° SSW
SPOT 5 3.0 20:35:54 30° SE 20:37:38 47° ENE 20:41:49 10° N
USA 238 DEB 3.9 20:31:41 10° S 20:37:53 45° ESE 20:44:21 10° NE
USA 238 3.9 20:31:49 10° S 20:38:00 45° ESE 20:44:27 10° NE
SPOT 1/Viking Rocket 3.5 20:39:53 23° SSE 20:43:10 87° WSW 20:48:27 10° NNW
Cosmos 1980 Rocket 2.2 20:38:20 10° NNW 20:44:03 86° ENE 20:47:05 29° SSE
Cosmos 1703 Rocket 4.4 20:42:05 10° N 20:46:04 34° ENE 20:47:06 30° ESE
Cosmos 2242 Rocket 4.0 20:41:52 10° N 20:46:09 46° ENE 20:47:28 35° ESE
SL-4 R/B 1.6 20:44:15 10° WSW 20:48:11 81° SSE 20:51:35 12° ENE
Cosmos 1763 Rocket 4.3 20:43:57 10° N 20:48:56 38° ENE 20:51:08 27° ESE
BREEZE-M DEB (TANK) 3.1 20:46:24 10° W 20:49:17 64° N 20:57:21 10° E
Cosmos 405 Rocket 3.0 20:49:22 42° ESE 20:49:36 43° E 20:53:09 10° NNE
Genesis I 3.1 20:45:46 10° NW 20:49:39 83° NE 20:50:44 46° SE
Cosmos 1140 Rocket 3.7 20:45:25 10° SSW 20:50:39 72° WNW 20:55:56 10° NNE
ATLAS 5 CENTAUR R/B 3.9 20:47:33 10° WNW 20:52:34 29° WSW 20:57:17 13° SSW
USA 32 4.0 20:53:02 22° S 20:56:33 88° W 21:01:49 10° N
Cosmos 1633 Rocket 3.8 20:55:05 11° SSW 20:59:12 52° WNW 21:03:33 10° N
Cosmos 1697 Rocket 3.6 20:54:22 10° NW 20:59:35 40° WSW 21:03:04 19° SSW
Cosmos 1833 Rocket 3.6 20:54:33 10° SW 20:59:59 50° WNW 21:05:29 10° NNE
Cosmos 1153 Rocket 4.5 21:03:25 32° SSE 21:06:18 62° E 21:12:23 10° NNE
Cosmos 1867 3.5 21:00:56 10° SW 21:06:23 89° ESE 21:11:53 10° NE
CENTAUR R/B 2.8 21:04:45 34° SSE 21:06:26 41° ESE 21:12:47 10° NE
Meteor 1-18 Rocket 4.1 21:02:02 10° N 21:07:39 75° ENE 21:09:49 38° SSE
Okean 1-7 3.3 21:03:36 10° N 21:07:50 49° ENE 21:08:30 45° ESE
Resurs 01 Rocket 4.0 21:06:27 10° SW 21:09:25 18° W 21:12:25 10° NW
FALCON 9 DEB 3.2 21:10:22 10° WSW 21:13:52 79° NNW 21:15:22 32° NE
Cosmos 1447 Rocket 4.5 21:08:25 10° N 21:14:49 88° ENE 21:17:47 34° S
Cosmos 1850 Rocket 4.2 21:14:19 43° SE 21:15:19 49° ESE 21:20:25 10° NNE
Meteor 2-4 Rocket 4.0 21:11:45 10° N 21:17:19 51° ENE 21:18:53 39° ESE
Cosmos 1515 3.6 21:14:25 10° N 21:18:15 66° E 21:18:22 66° E
Cosmos 676 Rocket 4.4 21:14:17 10° SSW 21:19:34 65° WNW 21:24:54 10° NNE
Cosmos 44 4.5 21:16:47 10° NNW 21:21:14 35° NE 21:23:08 26° E
ATLAS 5 CENTAUR R/B 3.2 21:19:05 10° NNW 21:21:38 32° NE 21:23:25 24° E
Meteor 1-25 Rocket 4.4 21:17:53 21° SSW 21:21:39 70° WNW 21:27:16 10° N
Cosmos 1470 Rocket 4.2 21:19:31 25° SW 21:21:55 53° WNW 21:26:15 10° N
USA 267 4.0 21:24:55 10° NE 21:31:16 55° NNW 21:37:36 10° W
NOSS 3-2 (A) 3.4 21:26:44 10° SW 21:32:27 85° NW 21:39:03 10° NE
Cosmos 921 Rocket 3.5 21:30:09 10° NNW 21:34:13 47° WSW 21:34:50 43° SW
ERS-1 Rocket 3.9 21:36:08 29° SW 21:38:06 41° W 21:42:51 10° NNW
NOSS 3-2 (C) 3.2 21:35:51 35° SSW 21:38:19 70° SE 21:44:48 10° NE
Cosmos 841 Rocket 3.8 21:35:53 10° NNW 21:41:02 54° ENE 21:42:00 47° ESE
Cosmos 540 Rocket 3.8 21:37:23 10° NNW 21:42:28 53° ENE 21:43:22 47° E
SL-16 R/B 2.2 21:37:14 10° NNW 21:42:57 78° ENE 21:44:17 54° SE
Lacrosse 5 1.9 21:39:23 10° NW 21:44:28 74° NE 21:45:31 55° ESE
Cosmos 468 Rocket 4.1 21:39:21 10° NNW 21:44:39 69° WSW 21:45:45 53° SSW
Cosmos 1741 Rocket 3.9 21:48:22 52° SSW 21:49:43 90° E 21:55:01 10° NNE
Cosmos 1570 Rocket 4.0 21:47:01 10° NNW 21:52:20 69° ENE 21:53:11 59° ESE
Cosmos 2082 Rocket 3.7 21:48:17 10° WSW 21:53:27 34° NW 21:58:37 10° NNE
Cosmos 2219 Rocket 4.1 21:49:25 10° N 21:53:43 21° NE 21:56:38 15° E
Cosmos 2208 Rocket 4.1 21:49:12 10° NNW 21:54:26 60° ENE 21:55:11 54° ESE
Cosmos 1814 Rocket 4.2 21:49:40 10° NNW 21:54:48 58° ENE 21:55:32 52° E
Terra 2.8 22:00:02 34° SW 22:01:00 37° W 22:05:26 10° NNW
Cosmos 2322 Rocket 2.1 21:59:35 10° NNW 22:05:19 88° WSW 22:06:13 65° SSE
USA 234 4.0 22:06:06 33° SSW 22:07:14 36° SW 22:13:09 10° WNW
Cosmos 2100 Rocket 4.0 22:05:36 44° SSW 22:07:37 74° W 22:13:47 10° N
Meteor 1-11 Rocket 3.7 22:09:09 61° ESE 22:09:38 64° E 22:15:18 10° NNE
Cosmos 1437 Rocket 4.2 22:07:43 10° NNW 22:10:50 29° W 22:10:50 29° W
Cosmos 1242 Rocket 4.2 22:09:51 10° N 22:12:07 29° NE 22:12:07 29° NE
Cosmos 1869 Rocket 4.0 22:13:01 54° W 22:13:18 55° WNW 22:17:42 10° N
Cosmos 2360 Rocket 2.2 22:13:52 10° NNW 22:19:32 68° ENE 22:20:19 60° ESE
COSMOS 2428 4.2 22:15:26 10° N 22:20:21 28° NE 22:22:37 22° E
Geosat 4.0 22:20:48 68° SW 22:20:58 69° WSW 22:26:01 10° NNW
ATLAS 3B R/B 2.7 22:21:12 53° SE 22:21:22 53° ESE 22:27:48 10° NE
Iridium 4 Rocket 3.6 22:21:45 49° W 22:21:48 49° W 22:25:57 10° N
Cosmos 2173 Rocket 4.3 22:21:11 41° SW 22:23:13 61° WNW 22:29:19 10° N
Cosmos 1500 4.5 22:25:10 36° WNW 22:25:10 36° WNW 22:28:15 10° N
CRYOSAT 2 4.3 22:21:49 10° N 22:26:45 85° W 22:26:46 85° W
Cosmos 1980 Rocket 4.3 22:24:05 10° WNW 22:27:15 15° W 22:28:51 14° WSW
ALOS 2 3.2 22:27:44 50° NE 22:27:44 50° NE 22:31:36 10° N
SL-4 R/B 3.3 22:24:28 10° W 22:27:13 34° NW 22:27:13 34° NW
Cosmos 1725 Rocket 3.9 22:27:19 63° S 22:28:27 85° E 22:34:49 10° N
Nimbus 7 Rocket 4.5 22:26:15 10° NNE 22:32:02 57° ESE 22:32:15 56° ESE
SL-08 R/B 4.3 22:32:19 65° SSW 22:33:19 87° WNW 22:39:27 10° N
Cosmos 1536 3.6 22:34:39 48° N 22:34:39 48° N 22:37:36 10° N
Cosmos 1674 Rocket 4.1 22:29:38 10° N 22:33:13 53° NE 22:33:13 53° NE
Cosmos 1666 3.9 22:37:32 40° NNW 22:37:32 40° NNW 22:40:08 10° N
Cosmos 2333 Rocket 3.0 22:34:29 10° NNW 22:40:01 44° NE 22:41:19 38° E
Cosmos 2016 Rocket 4.2 22:39:51 50° SW 22:41:25 66° W 22:47:47 10° N
Cosmos 1271 Rocket 4.3 22:38:23 10° N 22:40:47 31° NNE 22:40:47 31° NNE
Cosmos 2061 Rocket 4.2 22:41:22 50° SW 22:42:50 65° WNW 22:49:01 10° N
Meteor 1-13 Rocket 4.5 22:37:32 10° NNW 22:42:54 53° W 22:43:23 51° WSW
Lacrosse 4 Rocket 3.2 22:45:23 23° ENE 22:45:23 23° ENE 22:47:13 10° NE
Cosmos 2237 Rocket 4.3 22:39:47 10° N 22:43:48 19° NE 22:47:32 11° E
MOS 1-B Rocket 4.2 22:39:43 10° N 22:45:18 56° WNW 22:46:44 44° WSW
Cosmos 2221 Rocket 4.4 22:42:40 10° NNW 22:46:29 43° WNW 22:46:29 43° WNW
Cosmos 1733 Rocket 3.5 22:50:59 58° NNW 22:50:59 58° NNW 22:54:44 10° N
Cosmos 1066 Rocket 4.1 22:47:46 10° NNW 22:53:31 75° W 22:53:46 73° SW
Meteor 1-23 Rocket 4.2 22:49:29 10° NNW 22:55:19 76° W 22:55:43 73° SW
Thor Agena Rocket 3.8 22:51:34 10° N 22:56:33 58° WNW 22:57:00 56° W
CENTAUR R/B 3.4 22:51:50 14° WSW 22:56:59 50° NW 23:04:02 10° NE
Cosmos 968 Rocket 4.0 22:59:01 47° ENE 22:59:01 47° ENE 23:03:09 10° NNE
Cosmos 44 4.3 22:57:54 10° NW 23:01:33 38° W 23:01:33 38° W
Cosmos 2233 Rocket 4.1 23:14:31 59° SW 23:15:30 68° W 23:21:50 10° N
Cosmos 1464 Rocket 4.3 23:15:36 50° ESE 23:16:08 51° E 23:22:07 10° NNE
Cosmos 1908 Rocket 4.2 23:18:33 54° N 23:18:33 54° N 23:21:58 10° N
Cosmos 2227 Rocket 4.3 23:22:42 14° E 23:22:42 14° E 23:25:16 10° ENE
Helios 1B rocket 4.4 23:19:46 10° NE 23:21:48 21° ENE 23:21:48 21° ENE
Meteor 1-21 4.4 23:19:06 10° N 23:24:52 61° ENE 23:25:21 59° E
SL-16 R/B 4.1 23:22:45 10° WNW 23:26:08 17° W 23:26:08 17° W
Lacrosse 5 3.8 23:22:57 10° WNW 23:24:41 18° W 23:24:41 18° W
Cosmos 2322 3.7 23:24:10 10° NNW 23:29:31 66° W 23:29:31 66° W
Nadezhda 4 Rocket 4.3 23:30:46 10° N 23:36:58 55° ENE 23:38:04 49° ESE
Cosmos 2219 Rocket 2.1 23:32:40 10° NNW 23:38:19 81° WSW 23:38:19 81° WSW
Cosmos 1975 Rocket 3.6 23:38:47 10° N 23:42:25 58° N 23:42:25 58° N
Cosmos 1513 Rocket 4.4 23:42:38 71° SSE 23:43:22 83° E 23:49:49 10° N
Cosmos 2034 Rocket 4.1 23:43:53 56° ESE 23:44:34 60° E 23:50:46 10° NNE
Okean 2 Rocket 4.3 23:45:22 35° ENE 23:45:22 35° ENE 23:48:47 10° NNE
Cosmos 1503 Rocket 4.0 23:45:55 84° NE 23:45:55 84° NE 23:51:10 10° NNE
Cosmos 1072 Rocket 4.3 23:46:51 76° SSW 23:47:22 88° W 23:53:32 10° N
Cosmos 2322 Rocket 4.3 23:45:39 10° WNW 23:48:01 14° W 23:48:01 14° W
Helios 1A 4.1 23:49:48 38° NW 23:49:48 38° NW 23:52:40 10° NNW
SL-16 R/B 4.1 23:46:15 17° ESE 23:49:57 30° ENE 23:55:15 10° N
CZ-2D R/B 4.0 23:50:12 10° NE 23:54:02 19° E 23:54:54 18° ESE
SL-16 R/B 4.2 23:49:34 10° N 23:54:09 24° NE 23:58:41 10° E
Sich 1 Rocket 4.1 23:55:31 55° NNE 23:55:31 55° NNE 23:59:01 10° NNE
